Taylorville, IL

11:19 PM CDT on May 28, 2017 (GMT -0500)
Taylorville Municipal

Weather History for KTAZ - April, 2013

Change the Weather History Date:

Sunday, April 28, 2013

  Actual Average (KSPI) Record (KSPI)
Temperature  
Mean Temperature 54 °F -  
Max Temperature 59 °F 67 °F 87 °F (1951)
Min Temperature 48 °F 45 °F 31 °F (1992)
Degree Days  
Heating Degree Days 12    
Growing Degree Days 4 (Base 50)    
Moisture  
Dew Point 52 °F    
Average Humidity 95    
Maximum Humidity 100    
Minimum Humidity 82    
Precipitation  
Precipitation 0.02 in - - ()
Sea Level Pressure  
Sea Level Pressure 29.89 in    
Wind  
Wind Speed 7 mph (WNW)    
Max Wind Speed 13 mph    
Max Gust Speed -    
Visibility 5 miles    
Events Rain    
Averages and records for this station are not official NWS values.
T = Trace of Precipitation, MM = Missing Value Source: NWS Daily Summary

Daily Weather History Graph

Daily Weather History Graph

Search for Another Location

Airport or City:

Trip Planner

Search our weather history database for the weather conditions in past years. The results will help you decide how hot, cold, wet, or windy it might be!

Date:

Astronomy

Apr. 28, 2013 Rise Set
Actual Time 6:01 AM CDT 7:48 PM CDT
Civil Twilight 5:32 AM CDT 8:17 PM CDT
Nautical Twilight 4:57 AM CDT 8:52 PM CDT
Astronomical Twilight 4:20 AM CDT 9:29 PM CDT
Moon 11:18 PM CDT (4/28) 8:18 AM CDT (4/28)
Length of Visible Light 14h 44m
Length of Day
13h 46m
Waning Gibbous, 88% of the Moon is Illuminated
Apr 28
Waning Gibbous
May 2
Last Quarter
May 9
New
May 17
First Quarter
May 24
Full

Hourly Weather History & Observations

Time (CDT) Temp. Dew Point Humidity Pressure Visibility Wind Dir Wind Speed Gust Speed Precip Events Conditions
12:15 AM 51.8 °F 51.8 °F 100% 29.92 in 3.0 mi NE 5.8 mph - N/A   Light Drizzle
12:35 AM 51.8 °F 51.8 °F 100% 29.91 in 2.5 mi NNE 4.6 mph - N/A   Overcast
12:55 AM 51.8 °F 51.8 °F 100% 29.91 in 2.5 mi NE 5.8 mph - N/A Rain Light Rain
1:15 AM 51.8 °F 51.8 °F 100% 29.90 in 3.0 mi NE 5.8 mph - 0.01 in   Drizzle
1:35 AM 51.8 °F 51.8 °F 100% 29.89 in 3.0 mi NE 5.8 mph - 0.01 in   Drizzle
1:55 AM 51.8 °F 51.8 °F 100% 29.89 in 3.0 mi NNE 5.8 mph - N/A Rain Light Rain
2:15 AM 51.8 °F 51.8 °F 100% 29.88 in 3.0 mi NE 5.8 mph - N/A   Overcast
2:35 AM 51.8 °F 51.8 °F 100% 29.87 in 3.0 mi NE 4.6 mph - N/A   Overcast
2:55 AM 51.8 °F 51.8 °F 100% 29.87 in 2.5 mi NNE 5.8 mph - N/A   Overcast
3:15 AM 51.8 °F 51.8 °F 100% 29.87 in 2.0 mi North 4.6 mph - N/A   Overcast
3:35 AM 51.8 °F 51.8 °F 100% 29.86 in 1.5 mi North 4.6 mph - N/A   Overcast
3:55 AM 51.8 °F 51.8 °F 100% 29.86 in 1.5 mi North 5.8 mph - N/A   Overcast
4:15 AM 51.8 °F 51.8 °F 100% 29.86 in 1.5 mi NNW 5.8 mph - N/A   Overcast
4:35 AM 51.8 °F 51.8 °F 100% 29.86 in 1.2 mi NNW 5.8 mph - N/A   Overcast
4:55 AM 51.8 °F 51.8 °F 100% 29.86 in 1.0 mi NNW 5.8 mph - N/A   Overcast
5:15 AM 51.8 °F 51.8 °F 100% 29.86 in 1.0 mi NNW 6.9 mph - 0.01 in   Overcast
5:35 AM 51.8 °F 51.8 °F 100% 29.86 in 0.8 mi NNW 4.6 mph - 0.01 in   Light Drizzle
5:55 AM 51.8 °F 51.8 °F 100% 29.86 in 0.8 mi NNW 5.8 mph - N/A   Overcast
6:15 AM 51.8 °F 51.8 °F 100% 29.87 in 0.8 mi NNW 8.1 mph - N/A   Overcast
6:35 AM 51.8 °F 51.8 °F 100% 29.88 in 0.5 mi NNW 9.2 mph - N/A   Drizzle
6:55 AM 51.8 °F 51.8 °F 100% 29.88 in 0.5 mi NNW 6.9 mph - N/A   Light Drizzle
7:15 AM 51.8 °F 51.8 °F 100% 29.88 in 0.8 mi NNW 8.1 mph - N/A   Light Drizzle
7:35 AM 51.8 °F 51.8 °F 100% 29.89 in 0.8 mi NW 9.2 mph - N/A   Overcast
7:55 AM 51.8 °F 51.8 °F 100% 29.89 in 0.8 mi NW 5.8 mph - N/A   Overcast
8:15 AM 51.8 °F 51.8 °F 100% 29.90 in 0.8 mi NW 5.8 mph - N/A   Overcast
8:35 AM 51.8 °F 51.8 °F 100% 29.89 in 1.2 mi NW 6.9 mph - N/A   Overcast
8:55 AM 51.8 °F 51.8 °F 100% 29.90 in 1.5 mi NW 8.1 mph - N/A   Overcast
9:15 AM 51.8 °F 51.8 °F 100% 29.90 in 1.5 mi NW 8.1 mph - N/A   Overcast
9:35 AM 51.8 °F 51.8 °F 100% 29.90 in 1.5 mi WNW 8.1 mph - N/A   Overcast
9:55 AM 51.8 °F 51.8 °F 100% 29.90 in 1.2 mi WNW 8.1 mph - N/A   Overcast
10:15 AM 51.8 °F 51.8 °F 100% 29.90 in 2.0 mi WNW 8.1 mph - N/A   Overcast
10:35 AM 51.8 °F 51.8 °F 100% 29.90 in 1.5 mi NW 9.2 mph - N/A   Overcast
10:55 AM 51.8 °F 51.8 °F 100% 29.91 in 1.0 mi WNW 12.7 mph - N/A   Overcast
11:15 AM 51.8 °F 51.8 °F 100% 29.92 in 1.2 mi NW 10.4 mph - N/A   Drizzle
11:35 AM 53.6 °F 53.6 °F 100% 29.92 in 3.0 mi NW 9.2 mph - N/A   Overcast
11:55 AM 53.6 °F 53.6 °F 100% 29.91 in 4.0 mi NW 6.9 mph - N/A   Overcast
12:15 PM 53.6 °F 53.6 °F 100% 29.91 in 5.0 mi NW 9.2 mph - N/A   Overcast
12:35 PM 55.4 °F 53.6 °F 94% 29.91 in 5.0 mi NW 6.9 mph - N/A   Overcast
12:55 PM 55.4 °F 53.6 °F 94% 29.91 in 5.0 mi NW 9.2 mph - N/A   Mostly Cloudy
1:15 PM 55.4 °F 53.6 °F 94% 29.91 in 7.0 mi WNW 5.8 mph - N/A   Mostly Cloudy
1:35 PM 55.4 °F 53.6 °F 94% 29.90 in 7.0 mi NW 8.1 mph - N/A   Overcast
1:55 PM 59.0 °F 55.4 °F 88% 29.90 in 10.0 mi NNW 9.2 mph - N/A   Mostly Cloudy
2:15 PM 59.0 °F 53.6 °F 82% 29.89 in 10.0 mi NNW 9.2 mph - N/A   Mostly Cloudy
2:35 PM 59.0 °F 53.6 °F 82% 29.89 in 10.0 mi NW 8.1 mph - N/A   Mostly Cloudy
2:55 PM 59.0 °F 53.6 °F 82% 29.89 in 10.0 mi NW 5.8 mph - N/A   Mostly Cloudy
3:15 PM 59.0 °F 53.6 °F 82% 29.89 in 10.0 mi WNW 6.9 mph - N/A   Overcast
3:35 PM 59.0 °F 53.6 °F 82% 29.89 in 10.0 mi West 3.5 mph - N/A   Overcast
3:55 PM 57.2 °F 51.8 °F 82% 29.89 in 10.0 mi WNW 10.4 mph - N/A   Overcast
4:15 PM 57.2 °F 53.6 °F 88% 29.88 in 10.0 mi West 9.2 mph - N/A   Overcast
4:35 PM 57.2 °F 53.6 °F 88% 29.88 in 10.0 mi West 10.4 mph - N/A   Overcast
4:55 PM 59.0 °F 53.6 °F 82% 29.88 in 10.0 mi West 6.9 mph - N/A   Overcast
5:15 PM 59.0 °F 53.6 °F 82% 29.88 in 10.0 mi West 5.8 mph - N/A   Overcast
5:35 PM 59.0 °F 53.6 °F 82% 29.89 in 10.0 mi WSW 5.8 mph - N/A   Overcast
5:55 PM 57.2 °F 53.6 °F 88% 29.89 in 10.0 mi WSW 6.9 mph - N/A   Overcast
6:15 PM 57.2 °F 53.6 °F 88% 29.88 in 10.0 mi WSW 8.1 mph - N/A   Overcast
6:35 PM 57.2 °F 53.6 °F 88% 29.88 in 10.0 mi WSW 8.1 mph - N/A   Overcast
6:55 PM 57.2 °F 53.6 °F 88% 29.88 in 10.0 mi WSW 8.1 mph - N/A   Mostly Cloudy
7:15 PM 57.2 °F 53.6 °F 88% 29.88 in 10.0 mi WSW 6.9 mph - N/A   Scattered Clouds
7:35 PM 55.4 °F 53.6 °F 94% 29.88 in 10.0 mi SW 5.8 mph - N/A   Scattered Clouds
7:55 PM 55.4 °F 51.8 °F 88% 29.89 in 10.0 mi SW 8.1 mph - N/A   Clear
8:15 PM 53.6 °F 51.8 °F 94% 29.89 in 10.0 mi SW 6.9 mph - N/A   Scattered Clouds
8:35 PM 53.6 °F 51.8 °F 94% 29.90 in 10.0 mi SW 6.9 mph - N/A   Scattered Clouds
8:55 PM 51.8 °F 51.8 °F 100% 29.90 in 7.0 mi SSW 5.8 mph - N/A   Clear
9:15 PM 51.8 °F 51.8 °F 100% 29.90 in 10.0 mi SSW 6.9 mph - N/A   Clear
9:35 PM 51.8 °F 51.8 °F 100% 29.91 in 10.0 mi SW 6.9 mph - N/A   Clear
9:55 PM 51.8 °F 48.2 °F 88% 29.91 in 10.0 mi SSW 5.8 mph - N/A   Clear
10:15 PM 48.2 °F 48.2 °F 100% 29.91 in 7.0 mi SSW 8.1 mph - N/A   Clear
10:35 PM 50.0 °F 48.2 °F 94% 29.92 in 7.0 mi SSW 9.2 mph - N/A   Clear
10:55 PM 50.0 °F 48.2 °F 94% 29.91 in 10.0 mi SSW 9.2 mph - N/A   Clear
11:15 PM 48.2 °F 48.2 °F 100% 29.92 in 7.0 mi SSW 8.1 mph - N/A   Clear
11:35 PM 48.2 °F 48.2 °F 100% 29.92 in 7.0 mi SSW 8.1 mph - N/A   Clear
11:55 PM 48.2 °F 48.2 °F 100% 29.92 in 10.0 mi SSW 8.1 mph - N/A   Clear